Location: Caltech
(34.1382°N, 118.1253°W)
Time: 00:30:10
(UTC-07:00)

Cosmos 2219 - Visible Passes

Search period start: 26 May 2017 00:00
Search period end: 05 June 2017 00:00
Orbit: 835 x 858 km, 71.1° (Epoch: 25 May)

Date Brightness Start Highest point End Pass type
(mag) Time Alt. Az. Time Alt. Az. Time Alt. Az.
26 May 4.6 01:13:01 31° NE 01:13:01 31° NE 01:16:11 10° NE visible
26 May 4.8 02:54:56 21° WNW 02:55:11 21° WNW 02:59:25 10° N visible
27 May 4.7 00:59:43 29° NE 00:59:43 29° NE 01:02:42 10° NE visible
27 May 4.8 02:41:38 22° WNW 02:41:43 22° WNW 02:45:59 10° N visible
28 May 4.7 00:46:23 28° NE 00:46:23 28° NE 00:49:13 10° NE visible
28 May 4.8 02:28:18 22° WNW 02:28:18 22° WNW 02:32:35 10° N visible
29 May 4.8 00:33:01 27° NE 00:33:01 27° NE 00:35:45 10° NE visible
29 May 4.8 02:14:56 23° WNW 02:14:56 23° WNW 02:19:09 10° N visible
30 May 4.8 00:19:38 26° NE 00:19:38 26° NE 00:22:16 10° NE visible
30 May 4.8 02:01:32 23° NW 02:01:32 23° NW 02:05:44 10° N visible
31 May 4.8 00:06:12 25° NE 00:06:12 25° NE 00:08:47 10° NE visible
31 May 4.8 01:48:05 24° NW 01:48:05 24° NW 01:52:19 10° N visible
31 May 4.8 23:52:42 25° NE 23:52:42 25° NE 23:55:18 10° NE visible
01 Jun 4.8 01:34:36 25° NW 01:34:36 25° NW 01:38:54 10° N visible
01 Jun 4.7 23:39:12 25° ENE 23:39:12 25° ENE 23:41:49 10° NE visible
02 Jun 4.8 01:21:05 25° WNW 01:21:05 25° WNW 01:25:29 10° N visible
02 Jun 4.7 23:25:38 25° ENE 23:25:38 25° ENE 23:28:20 10° NE visible
03 Jun 4.8 01:07:31 26° WNW 01:07:31 26° WNW 01:12:03 10° N visible
03 Jun 4.6 23:12:00 26° ENE 23:12:00 26° ENE 23:14:52 10° NE visible
04 Jun 4.8 00:53:53 26° WNW 00:53:57 26° WNW 00:58:37 10° N visible
04 Jun 4.5 22:58:20 27° ENE 22:58:20 27° ENE 23:01:22 10° NE visible
